Regional Weather Roundup
Issued by NWS Goodland, KS

Home | Current Version | Previous Version | Graphics & Text | Print | Product List | Glossary On
Versions: 1 2 3 4 5 6 7 8 9 10 11 12 13 14 15 16 17 18 19 20 21 22 23 24 25 26 27 28 29 30 31 32 33 34 35 36 37 38 39 40 41 42 43 44 45 46 47 48 49 50
000
ASUS43 KGLD 230359
RWRGLD

GOODLAND FORECAST AREA HOURLY WEATHER ROUNDUP
NATIONAL WEATHER SERVICE GOODLAND KS
1000 PM MDT FRI MAY 22 2015

...OFFICIAL OBSERVATIONS...

CITY           SKY/WX    TMP DP  RH WIND       PRES   REMARKS
GOODLAND KS    FOG       52  52 100 SE21G26   30.03R VSB 1/2
HILL CITY KS   CLOUDY    55  53  93 SE13      30.11R
IMPERIAL NEB   CLOUDY    50  48  93 SE13      30.06R FOG
MCCOOK NEB     CLOUDY    52  51  97 SE14      30.08R
AKRON CO       FOG       49  49 100 E9        30.04R VSB 1/4
BURLINGTON CO  LGT RAIN  54  52  93 SE32G43   29.97F FOG
LIMON CO       CLOUDY    50  47  89 N9        30.01R
$$

...UNOFFICIAL OBSERVATIONS...

CITY           SKY/WX    TMP DP  RH WIND       PRES   REMARKS
GOVE KS          N/A     55  32  41 MISG        N/A
LENORA KS        N/A     53  32  45 MISG        N/A
SHARON SPRINGS   N/A     55  53  94 MISG        N/A
TRENTON NEB      N/A     51  32  48 SE14        N/A
KIT CARSON CO    N/A     56  53  89 MISG        N/A
YUMA CO          N/A     54  54 100 E9          N/A
$$


USA.gov is the U.S. government's official web portal to all federal, state and local government web resources and services.